Back to catalog

ONEWEB-0262

AliveCommunicationsPO
NORAD 48980·PAYLOAD·🇬🇧 United Kingdom

Launched Jul 1, 2021 from Vostochny Cosmodrome

Loading…

Next Passes (next 24 hours)

TLE

FreshSource: CelesTrak SupGP

Epoch: Sep 14, 2026, 06:46 UTC

1 48980C 21060P   26257.28212222  .00003886  00000+0  10177-1 0  2579
2 48980  87.9148 211.0791 0001899  73.7458  31.8179 13.16588747    10

Track ONEWEB-0262 in real time with AllMySat

Download on the App Store